TimeMST,TemperatureF,Dew PointF,Humidity,Sea Level PressureIn,VisibilityMPH,Wind Direction,Wind SpeedMPH,Gust SpeedMPH,PrecipitationIn,Events,Conditions,WindDirDegrees,DateUTC
12:55 AM,0.3,-5.6,76,30.09,10.0,West,4.6,-,N/A,,Clear,280,2012-12-10 07:55:00
1:55 AM,1.4,-4.2,77,30.06,10.0,West,5.8,-,N/A,,Partly Cloudy,280,2012-12-10 08:55:00
2:55 AM,2.8,-2.7,78,30.02,10.0,West,5.8,-,N/A,,Mostly Cloudy,280,2012-12-10 09:55:00
3:55 AM,4.8,-1.3,76,29.99,10.0,West,6.9,-,N/A,,Mostly Cloudy,270,2012-12-10 10:55:00
4:55 AM,9.7,3.6,76,29.98,10.0,West,6.9,-,N/A,,Overcast,270,2012-12-10 11:55:00
5:55 AM,13.1,5.4,71,29.97,10.0,West,4.6,-,N/A,,Mostly Cloudy,270,2012-12-10 12:55:00
6:55 AM,13.1,7.0,77,29.96,10.0,South,3.5,-,N/A,,Mostly Cloudy,180,2012-12-10 13:55:00
7:55 AM,18.0,10.4,72,29.95,10.0,WNW,5.8,-,N/A,,Overcast,290,2012-12-10 14:55:00
8:55 AM,25.0,16.3,70,29.92,10.0,WSW,3.5,-,N/A,,Clear,240,2012-12-10 15:55:00
9:55 AM,30.7,17.6,58,29.91,10.0,SW,4.6,-,N/A,,Clear,220,2012-12-10 16:55:00
10:55 AM,33.6,18.3,54,29.91,10.0,Calm,Calm,-,N/A,,Partly Cloudy,0,2012-12-10 17:55:00
11:21 AM,35.6,19.4,52,29.89,10.0,NNW,18.4,-,N/A,,Mostly Cloudy,340,2012-12-10 18:21:00
11:55 AM,34.7,20.3,56,29.88,10.0,NNW,25.3,33.4,N/A,,Mostly Cloudy,330,2012-12-10 18:55:00
12:55 PM,34.0,21.2,60,29.89,10.0,NNW,23.0,33.4,N/A,,Overcast,330,2012-12-10 19:55:00
1:55 PM,33.3,21.2,61,29.91,10.0,NNW,24.2,32.2,N/A,,Mostly Cloudy,330,2012-12-10 20:55:00
2:55 PM,32.5,19.6,59,29.94,10.0,NNW,21.9,31.1,N/A,,Overcast,330,2012-12-10 21:55:00
3:55 PM,30.9,19.0,61,29.96,10.0,NW,25.3,34.5,N/A,,Overcast,320,2012-12-10 22:55:00
4:55 PM,29.7,18.7,64,29.97,10.0,NNW,24.2,31.1,0.00,,Overcast,340,2012-12-10 23:55:00
5:30 PM,26.6,21.2,80,29.99,10.0,NW,16.1,26.5,N/A,,Overcast,320,2012-12-11 00:30:00
5:55 PM,25.3,19.2,78,29.99,10.0,NW,12.7,-,0.00,,Partly Cloudy,320,2012-12-11 00:55:00
6:55 PM,27.7,17.4,65,29.99,10.0,NW,16.1,-,N/A,,Overcast,320,2012-12-11 01:55:00
7:55 PM,25.0,16.3,70,30.00,10.0,WNW,12.7,-,N/A,,Partly Cloudy,300,2012-12-11 02:55:00
8:55 PM,24.4,16.0,70,29.98,10.0,West,10.4,-,N/A,,Partly Cloudy,280,2012-12-11 03:55:00
9:55 PM,19.6,13.5,77,29.97,10.0,West,6.9,-,N/A,,Scattered Clouds,270,2012-12-11 04:55:00
10:55 PM,25.0,16.9,71,29.97,10.0,WNW,6.9,-,N/A,,Overcast,290,2012-12-11 05:55:00
11:55 PM,24.4,20.5,85,29.95,10.0,WNW,6.9,-,0.00,,Overcast,300,2012-12-11 06:55:00